Location: Unspecified
(0.0000°N, 0.0000°E)
Time: 08:52:42
(UTC+00:00)

Tiangong 2 - Pass Details

Date: 27 March 2017
Orbit: 389 x 395 km, 42.8° (Epoch: 17 August)

Event Time Altitude Azimuth Distance (km) Brightness Sun altitude
Rises 18:32:35 0° 200° (SSW) 2,280 5.2 -6.8°
Reaches altitude 10° 18:35:11 10° 178° (S) 1,420 3.9 -7.5°
Maximum altitude 18:37:20 17° 136° (SE) 1,089 2.9 -8.0°
Enters shadow 18:39:10 11° 98° (E) 1,336 3.1 -8.5°
